Weather History for Holland, MI

Change the Weather History Date:

Thursday, October 17, 2013

  Actual Average Record
Temperature  
Mean Temperature 51 °F 52 °F  
Max Temperature 54 °F 62 °F 82 °F (1956)
Min Temperature 47 °F 43 °F 25 °F (1976)
Degree Days  
Heating Degree Days 14 13  
Month to date heating degree days 105 182  
Since 1 July heating degree days 237 312  
Cooling Degree Days 0 0  
Month to date cooling degree days 14 10  
Year to date cooling degree days 811 692  
Moisture  
Dew Point 49 °F    
Average Humidity 84    
Maximum Humidity 96    
Minimum Humidity 71    
Precipitation  
Precipitation 0.70 in 0.12 in 1.03 in (2002)
Month to date precipitation 2.49 1.85  
Year to date precipitation 31.68 28.96  
Sea Level Pressure  
Sea Level Pressure 29.82 in    
Wind  
Wind Speed 4 mph (NW)    
Max Wind Speed 13 mph    
Max Gust Speed 21 mph    
Visibility 7 miles    
Events Rain    
T = Trace of Precipitation, MM = Missing Value Source: NWS Daily Summary

Daily Weather History Graph

Daily Weather History Graph

Search for Another Location

Airport:

Trip Planner

Search our weather history database for the weather conditions in past years. The results will help you decide how hot, cold, wet, or windy it might be!

Date:

Astronomy

Oct. 17, 2013 Rise Set
Actual Time 8:00 AM EDT 6:58 PM EDT
Civil Twilight 7:31 AM EDT 7:26 PM EDT
Nautical Twilight 6:58 AM EDT 7:59 PM EDT
Astronomical Twilight 6:26 AM EDT 8:32 PM EDT
Moon 6:12 PM EDT (10/17) 6:30 AM EDT (10/17)
Length of Visible Light 11h 55m
Length of Day
10h 58m
Waxing Gibbous, 98% of the Moon is Illuminated
Oct 17
Waxing Gibbous
Oct 18
Full
Oct 26
Last Quarter
Nov 3
New
Nov 10
First Quarter

Hourly Weather History & Observations

Time (EDT) Temp. Dew Point Humidity Pressure Visibility Wind Dir Wind Speed Gust Speed Precip Events Conditions
12:02 AM 53.6 °F 51.8 °F 94% 29.89 in 9.0 mi West 5.8 mph - 0.01 in Rain Light Rain
12:15 AM 53.6 °F 51.8 °F 94% 29.89 in 8.0 mi West 4.6 mph - 0.01 in Rain Light Rain
12:37 AM 53.6 °F 51.8 °F 94% 29.88 in 10.0 mi West 3.5 mph - 0.01 in   Overcast
12:45 AM 53.6 °F 51.8 °F 94% 29.88 in 10.0 mi Calm Calm - 0.01 in   Overcast
12:53 AM 53.1 °F 51.1 °F 93% 29.83 in 10.0 mi Calm Calm - 0.01 in   Overcast
1:24 AM 51.8 °F 51.8 °F 100% 29.89 in 6.0 mi Variable 4.6 mph - 0.02 in Rain Light Rain
1:37 AM 51.8 °F 50.0 °F 94% 29.89 in 6.0 mi North 3.5 mph - 0.03 in Rain Light Rain
1:50 AM 51.8 °F 50.0 °F 94% 29.88 in 4.0 mi Calm Calm - 0.04 in Rain Light Rain
1:53 AM 52.0 °F 50.0 °F 93% 29.83 in 5.0 mi Calm Calm - 0.04 in Rain Light Rain
2:53 AM 52.0 °F 50.0 °F 93% 29.83 in 10.0 mi Calm Calm - 0.01 in Rain Light Rain
3:38 AM 51.8 °F 50.0 °F 94% 29.88 in 8.0 mi Calm Calm - 0.01 in Rain Light Rain
3:53 AM 52.0 °F 50.0 °F 93% 29.88 in 10.0 mi Calm Calm - 0.02 in Rain Light Rain
4:53 AM 50.0 °F 48.9 °F 96% 29.82 in 7.0 mi Calm Calm - 0.02 in   Overcast
5:16 AM 50.0 °F 48.2 °F 94% 29.87 in 7.0 mi East 4.6 mph - 0.00 in Rain Light Rain
5:53 AM 50.0 °F 48.0 °F 93% 29.81 in 4.0 mi East 5.8 mph - 0.02 in Rain Light Rain
6:00 AM 50.0 °F 48.2 °F 94% 29.86 in 5.0 mi East 6.9 mph - 0.00 in Rain Light Rain
6:10 AM 50.0 °F 48.2 °F 94% 29.87 in 10.0 mi East 5.8 mph - 0.00 in   Overcast
6:43 AM 50.0 °F 48.2 °F 94% 29.86 in 10.0 mi East 4.6 mph - 0.01 in   Overcast
6:53 AM 50.0 °F 48.0 °F 93% 29.86 in 10.0 mi East 4.6 mph - 0.01 in   Overcast
7:53 AM 50.0 °F 48.0 °F 93% 29.85 in 10.0 mi East 3.5 mph - 0.00 in Rain Light Rain
8:53 AM 50.0 °F 48.9 °F 96% 29.84 in 9.0 mi ENE 3.5 mph - 0.00 in Rain Light Rain
9:13 AM 51.8 °F 48.2 °F 88% 29.84 in 8.0 mi Calm Calm - 0.00 in Rain Light Rain
9:53 AM 52.0 °F 50.0 °F 93% 29.78 in 5.0 mi Calm Calm - 0.01 in Rain Light Rain
10:53 AM 53.1 °F 51.1 °F 93% 29.82 in 6.0 mi Variable 4.6 mph - 0.03 in Rain Light Rain
11:22 AM 53.6 °F 51.8 °F 94% 29.81 in 2.5 mi Calm Calm - 0.07 in Rain Heavy Rain
11:30 AM 53.6 °F 51.8 °F 94% 29.81 in 2.5 mi SSE 3.5 mph - 0.10 in Rain Rain
11:33 AM 53.6 °F 51.8 °F 94% 29.81 in 3.0 mi Calm Calm - 0.11 in Rain Rain
11:53 AM 53.1 °F 51.1 °F 93% 29.75 in 4.0 mi SW 4.6 mph - 0.13 in Rain Light Rain
12:14 PM 53.6 °F 51.8 °F 94% 29.80 in 5.0 mi WSW 4.6 mph - 0.04 in Rain Light Rain
12:53 PM 53.1 °F 51.1 °F 93% 29.74 in 5.0 mi Calm Calm - 0.10 in Rain Light Rain
1:00 PM 53.6 °F 51.8 °F 94% 29.79 in 6.0 mi South 3.5 mph - 0.00 in Rain Light Rain
1:37 PM 53.6 °F 51.8 °F 94% 29.77 in 10.0 mi SSW 8.1 mph - 0.03 in Rain Light Rain
1:48 PM 53.6 °F 50.0 °F 88% 29.76 in 2.0 mi SSE 10.4 mph - 0.09 in Rain Heavy Rain
1:50 PM 51.8 °F 50.0 °F 94% 29.76 in 1.8 mi SSE 8.1 mph - 0.11 in Rain Heavy Rain
1:53 PM 52.0 °F 50.0 °F 93% 29.76 in 1.8 mi SE 10.4 mph - 0.13 in Rain Heavy Rain
1:59 PM 51.8 °F 48.2 °F 88% 29.76 in 3.0 mi SE 4.6 mph - 0.01 in Rain Light Rain
2:19 PM 51.8 °F 48.2 °F 88% 29.76 in 2.5 mi NW 8.1 mph 20.7 mph 0.07 in Rain Heavy Rain
2:26 PM 51.8 °F 48.2 °F 88% 29.76 in 3.0 mi NNW 5.8 mph - 0.09 in Rain Rain
2:53 PM 51.1 °F 48.0 °F 89% 29.76 in 10.0 mi NNW 12.7 mph 17.3 mph 0.11 in Rain Light Rain
3:00 PM 50.0 °F 48.2 °F 94% 29.77 in 10.0 mi NNW 8.1 mph 17.3 mph 0.00 in Rain Light Rain
3:11 PM 51.8 °F 48.2 °F 88% 29.77 in 10.0 mi NNW 8.1 mph - 0.00 in Rain Light Rain
3:53 PM 50.0 °F 46.9 °F 89% 29.73 in 10.0 mi NW 8.1 mph - 0.00 in   Overcast
3:58 PM 50.0 °F 46.4 °F 87% 29.78 in 10.0 mi NNW 8.1 mph - N/A   Overcast
4:14 PM 51.8 °F 46.4 °F 82% 29.78 in 10.0 mi NW 6.9 mph - N/A   Overcast
4:27 PM 50.0 °F 46.4 °F 87% 29.78 in 10.0 mi NNW 6.9 mph - N/A   Overcast
4:53 PM 48.9 °F 46.9 °F 93% 29.80 in 3.0 mi WNW 4.6 mph - 0.01 in Rain Light Rain
5:02 PM 48.2 °F 46.4 °F 93% 29.79 in 4.0 mi NW 5.8 mph - 0.00 in Rain Light Rain
5:15 PM 48.2 °F 46.4 °F 93% 29.79 in 3.0 mi NNW 4.6 mph - 0.01 in Rain Light Rain
5:53 PM 50.0 °F 46.9 °F 89% 29.80 in 10.0 mi Calm Calm - 0.06 in Rain Light Rain
6:06 PM 50.0 °F 46.4 °F 87% 29.80 in 10.0 mi WNW 3.5 mph - 0.00 in   Overcast
6:53 PM 50.0 °F 46.0 °F 86% 29.81 in 10.0 mi West 3.5 mph - 0.00 in   Overcast
7:53 PM 50.0 °F 42.1 °F 74% 29.84 in 10.0 mi WNW 6.9 mph - N/A   Overcast
8:53 PM 50.0 °F 41.0 °F 71% 29.85 in 10.0 mi WNW 3.5 mph - N/A   Overcast
9:53 PM 50.0 °F 42.1 °F 74% 29.79 in 10.0 mi Calm Calm - N/A   Overcast
10:53 PM 50.0 °F 41.0 °F 71% 29.85 in 10.0 mi West 5.8 mph - N/A   Mostly Cloudy
11:53 PM 48.9 °F 39.9 °F 71% 29.79 in 10.0 mi West 5.8 mph - N/A   Mostly Cloudy